www.pogodaiklimat.ru

Погода и климат >> Архив погоды >> Бангладеш >> Динаджпур


ПОГОДА в Динаджпуре

  • Прогноз погоды в Динаджпуре
  • Монитор погоды в Динаджпуре

АРХИВ ПОГОДЫ в Динаджпуре

Время (UTC), дата Ветер
(напр.,м/с)
 
Видим.   Явления Облачность Т
(С)
Тd
(С)
f
(%)
Тe
(С)
Тes
(С)
Комфортность P
(гПа)
Po
(гПа)
Тmin
(С)
Tmax
(С)
R
(мм)
R24
(мм)
S
(см)
18 11.09 В 1 5000 м {дождь} 6/4 540 м
[Sc Ac cast Ci sp]
+28.0 +27.0 94 +44 +44 опасность
перегрева
1005.3 1001.0 2
00 12.09 В 1 5000 м 10/6 540 м
[Sc As op]
+27.3 +26.0 93 +41 +41 опасность
перегрева
1004.3 1000.0
03 12.09 В 4 6000 м 10/6 300 м
[St As op]
+29.2 +26.0 83 +44 +44 опасность
перегрева
1006.5 1002.2 +26.8
06 12.09 В 5 5000 м {дождь} 10/8 270 м
[St As op]
+30.3 +25.0 73 +43 +44 опасность
перегрева
1005.1 1000.8 1
09 12.09 В 2 5000 м в посл. час дождь 10/8 270 м
[St As op]
+28.8 +27.0 90 +45 +46 опасность
перегрева
1003.4 999.1
12 12.09 В 2 5000 м слаб. дождь 10/8 240 м
[St As op]
+26.5 +26.0 97 +40 +40 очень
душно
1004.2 999.9 +31.3 13
15 12.09 В 2 5000 м {дождь} 5/5 540 м
[Sc]
+26.7 +26.0 96 +40 +40 очень
душно
1006.5 1002.2
18 12.09 В 2 4000 м слаб. дождь 10/6 240 м
[Frnb As op]
+27.0 +26.0 94 +40 +40 очень
душно
1007.0 1002.7 1
00 13.09 В 2 4000 м {дождь} 10/5 600 м
[Sc As op]
+26.7 +26.0 96 +40 +40 очень
душно
1006.2 1001.9 11
03 13.09 СВ 1 6000 м в посл. час дождь 8/4 540 м
[Sc As op]
+28.0 +27.0 94 +44 +47 опасность
перегрева
1008.2 1003.9 +26.0
06 13.09 В 1 6000 м {дождь} 6/3 540 м
[Sc As op]
+32.8 +27.0 72 +51 +61 опасность
перегрева
1007.0 1002.8 11
09 13.09 В 1 5000 м гроза, ливневой дождь 10/6 240 м
[Cb cap As op]
+27.5 +26.0 92 +41 +42 опасность
перегрева
1005.1 1000.9
12 13.09 В 1 5000 м {гроза, дождь} 10/4 600 м
[Sc diur, vesp As op]
+27.5 +26.0 92 +41 +41 опасность
перегрева
1005.1 1000.9 +32.8 26
15 13.09 В 1 5000 м 8/4 540 м
[Sc As op]
+27.2 +26.0 93 +41 +41 опасность
перегрева
1007.3 1003.0
18 13.09 штиль 0 5000 м 8/4 540 м
[Sc As op]
+27.0 +26.0 94 +40 +40 очень
душно
1007.2 1002.9
03 14.09 Ю 1 5000 м гроза, ливневой дождь 10/8 210 м
[Cb cap As op]
+27.8 +27.0 95 +44 +44 опасность
перегрева
1007.8 1003.5 +26.5
06 14.09 В 1 6000 м {гроза, дождь} 8/5 540 м
[Sc As op]
+32.0 +27.0 75 +50 +56 опасность
перегрева
1007.5 1003.2 5
09 14.09 ЮВ 1 6000 м 8/4 540 м
[Sc As op]
+32.0 +27.0 75 +50 +53 опасность
перегрева
1004.6 1000.4
12 14.09 В 1 6000 м {гроза, дождь} 9/4 540 м
[Sc As op]
+29.0 +27.0 89 +46 +46 опасность
перегрева
1004.4 1000.1 +32.7 0.4
15 14.09 З 1 3000 м гроза, ливневой дождь 10/6 240 м
[Cb cap As op]
+26.0 +25.0 94 +37 +37 очень
душно
1007.7 1003.4
18 14.09 В 1 4000 м {гроза, дождь} 10/4 540 м
[Sc As op]
+27.0 +26.0 94 +40 +40 очень
душно
1006.7 1002.4 7
00 15.09 В 1 4000 м 10/5 540 м
[Sc As op]
+26.6 +26.0 97 +40 +40 очень
душно
1005.9 1001.6
03 15.09 СВ 1 4000 м 10/6 300 м
[St As op]
+27.2 +26.0 93 +41 +41 опасность
перегрева
1007.4 1003.1 +25.5
06 15.09 СЗ 2 6000 м {дождь} 8/4 540 м
[Sc As op]
+31.4 +27.0 78 +49 +55 опасность
перегрева
1005.5 1001.3 5
09 15.09 ЮВ 1 6000 м гроза, ливневой дождь 10/8 210 м
[Cb cap As op]
+27.0 +26.0 94 +40 +41 очень
душно
1004.3 1000.0
12 15.09 ЮВ 1 5000 м {гроза, дождь} 10/6 300 м
[St As op]
+27.1 +26.0 94 +41 +41 опасность
перегрева
1003.2 998.9 +31.6 36
15 15.09 штиль 0 5000 м 10/4 540 м
[Sc As op]
+26.8 +26.0 95 +40 +40 очень
душно
1005.2 1000.9
18 15.09 штиль 0 5000 м ясно +26.5 +26.0 97 +40 +40 очень
душно
1005.3 1001.0
00 16.09 В 1 5000 м в посл. час дождь 10/6 540 м
[Sc diur, vesp As op]
+26.3 +26.0 98 +39 +39 очень
душно
1004.6 1000.3 2
03 16.09 штиль 0 5000 м слаб. дождь 10/5 480 м
[Sc As op]
+27.5 +27.0 97 +43 +44 опасность
перегрева
1005.9 1001.7 +25.7
06 16.09 В 2 5000 м {дождь} 10/6 240 м
[St As op]
+27.8 +26.0 90 +42 +43 опасность
перегрева
1006.1 1001.9 0.4
09 16.09 В 2 5000 м 10/6 240 м
[St As op]
+28.0 +26.0 89 +42 +43 опасность
перегрева
1003.1 998.9
12 16.09 В 1 5000 м 10/6 240 м
[St As op]
+27.0 +25.0 89 +39 +39 очень
душно
1003.1 998.8 +28.5
15 16.09 штиль 0 5000 м 10/6 300 м
[St As op]
+26.5 +26.0 97 +40 +40 очень
душно
1005.5 1001.2
18 16.09 штиль 0 5000 м 10/6 300 м
[St As op]
+26.5 +26.0 97 +40 +40 очень
душно
1006.0 1001.7
00 17.09 СВ 1 4000 м гроза, ливневой дождь 10/8 210 м
[Cb cap As op]
+25.5 +25.0 97 +36 +36 очень
душно
1006.1 1001.8 76
03 17.09 В 1 4000 м в посл. час дождь {гроза} 10/5 600 м
[Sc As op]
+26.1 +25.0 94 +37 +38 очень
душно
1008.1 1003.7 +23.9
06 17.09 штиль 0 5000 м {гроза, дождь} 10/5 500 м
[Sc As op]
+29.5 +27.0 86 +46 +49 опасность
перегрева
1008.1 1003.9 2
09 17.09 штиль 0 4000 м в посл. час дождь {гроза} 10/6 300 м
[St As op]
+26.4 +25.0 92 +38 +39 очень
душно
1006.5 1002.2
12 17.09 СВ 1 6000 м {гроза, дождь} 9/6 540 м
[St As op]
+26.3 +24.0 87 +36 +36 очень
душно
1006.1 1001.8 +29.7 9
15 17.09 штиль 0 4000 м 10/6 300 м
[St As op]
+25.5 +25.0 97 +36 +36 очень
душно
1008.3 1004.0
18 17.09 штиль 0 4000 м 8/4 540 м
[Sc As op]
+25.0 +24.0 94 +34 +34 очень
душно
1008.6 1004.3
00 18.09 СВ 1 4000 м 8/4 540 м
[Sc As op]
+25.1 +25.0 99 +36 +36 очень
душно
1008.2 1003.9
03 18.09 В 1 6000 м 6/6 540 м
[Sc diur, vesp]
+28.5 +27.0 92 +45 +49 опасность
перегрева
1011.3 1007.0 +24.5
06 18.09 В 1 6000 м 6/6 540 м
[Sc diur, vesp]
+32.6 +27.0 72 +50 +59 опасность
перегрева
1011.0 1006.8
09 18.09 С 2 7000 м 3/3 540 м
[Sc diur, vesp Ci sp]
+33.4 +26.0 65 +49 +55 опасность
перегрева
1008.5 1004.3
12 18.09 В 1 6000 м 3/0
[Ci sp]
+30.1 +27.0 84 +48 +48 опасность
перегрева
1007.8 1003.5 +33.4
15 18.09 штиль 0 5000 м ясно +28.0 +27.0 94 +44 +44 опасность
перегрева
1010.0 1005.7

 

Местоположение метеостанции Динаджпур (Бангладеш): широта 25.65 долгота 88.68 высота над уровнем моря 36 м.

В архиве по умолчанию представлена погода в Динаджпуре за последнюю неделю. Архивные данные за месяц целиком и за предыдущие месяцы, начиная с января 2011 года, Вы можете получить, выбрав интересующий диапазон дат из раскрывающегося списка и нажав кнопку "Ввод!".


*Определитесь, кто Вы:
робот инопланетянин человек

Внимание! Время в таблицах - всемирное. Для получения местного времени необходимо прибавить поправку, которая равна 6.5 ч.

Смотрите также архив погоды в соседних городах и на ближайших метеорологических станциях:

Погода в Саидпуре (Бангладеш) (27 км)
Погода в Балургхате (Западная Бенгалия, Индия) (49 км)
Погода в Димле (Бангладеш) (51 км)
Погода в Рангпуре (Бангладеш) (56 км)
Погода в Тетулии (Бангладеш) (77 км)
Погода в Малда (Западная Бенгалия, Индия) (88 км)
Погода в Раджархэте (Бангладеш) (89 км)
Погода в Джалпайгури (Западная Бенгалия, Индия) (98 км)
Погода в Куч-Бихар (Западная Бенгалия, Индия) (109 км)
Погода в Богре (Бангладеш) (113 км)

Пояснения к столбцам:

Ветер - указаны скорость ветра в м/с - средняя за 10 мин, порывы в срок и между сроками (в фигурных скобках) и направление, откуда дует ветер: С - северный, СВ - северо-восточный, В - восточный, ЮВ - юго-восточный, Ю - южный, ЮЗ - юго-западный, З - западный, СЗ - северо-западный.
Видимость - горизонтальная дальность видимости в метрах или километрах. При видимости от 1 до 10 км при отсутствии осадков обычно наблюдается дымка, при ухудшении видимости до 1 км и менее - туман. В сухую погоду видимость может ухудшаться дымом, пылью или мглою.
Явления - указаны атмосферные явления, наблюдавшиеся в срок или в последний час перед сроком; фигурными скобками обозначены явления, наблюдавшиеся между сроками (за 1-3 часа до срока); квадратными скобками обозначены град или гололедные отложения с указанием их диаметра в мм.
Облачность - указаны через наклонную черту общая и нижняя облачность в баллах и высота нижней границы облаков в метрах; квадратными скобками обозначены формы облаков: Ci - перистые, Cs - перисто-слоистые, Cc - перисто-кучевые, Ac - высококучевые, As - высокослоистые, Sc - слоисто-кучевые, Ns - слоисто-дождевые, Cu - кучевые, Cb - кучево-дождевые. Подробнее классификацию облаков см. в Атласе облаков (PDF).
T - Температура воздуха - температура, измеренная на высоте 2 м над землей.
Td - Температура точки росы - температура, при понижении до которой содержащийся в воздухе водяной пар достигнет насыщения.
f - Относительная влажность воздуха - влажноcть воздуха, измеренная на высоте 2 м над землей.
Te - Эффективная температура - температура, которую ощущает одетый по сезону человек в тени. Характеристика душности погоды. При расчете учитывается влияние влажности воздуха и скорости ветра на теплоощущения человека.
Tes - Эффективная температура на солнце - температура, которую ощущает человек, с поправкой на солнечный нагрев. Характеристика знойности погоды. Зависит от высоты солнца над горизонтом, облачности и скорости ветра. Ночью, в пасмурную погоду, а также при ветре 12 м/с и более поправка равна нулю.
P - Атмосферное давление - приведенное к уровню моря атмосферное давление.
Po - Атмосферное давление - измеренное на уровне метеостанции атмосферное давление.
Tmin - Минимальная температура - минимум температуры воздуха на высоте 2 м над землей.
Tmax - Максимальная температура - максимум температуры воздуха на высоте 2 м над землей.
R - Количество осадков - Количество выпавших осадков за период времени, мм. При наведении курсора мыши на число - период времени, за который выпало указанное количество осадков.
R24 - Количество осадков - Количество выпавших осадков за 24 часа, мм.
S - Снежный покров - Высота снежного покрова, см. При наведении курсора мыши на число - состояние снежного покрова и степень покрытия местности в баллах.